Wetterdaten: Dienstag, 01.09.2015
Datum Zeit Auen-Temp. Temp gefhlt Luftfeuchte Luftdruck Regen Wind Richtung Richtung Taupunkt Windben
01.09.2015 00:00 17,1 C 16,9 C 63 % 1010,1 hPa 0,0 mm 0,0 km/h (0 Bft) S-SO 157 10,0 C 0,0 km/h (0 Bft)
01.09.2015 00:05 16,9 C 16,8 C 63 % 1010,1 hPa 0,0 mm 0,0 km/h (0 Bft) S-SO 157 9,8 C 0,0 km/h (0 Bft)
01.09.2015 00:10 16,9 C 16,7 C 63 % 1010,1 hPa 0,0 mm 0,0 km/h (0 Bft) S 180 9,8 C 0,0 km/h (0 Bft)
01.09.2015 00:15 16,9 C 16,7 C 63 % 1009,9 hPa 0,0 mm 0,0 km/h (0 Bft) SW 225 9,8 C 0,0 km/h (0 Bft)
01.09.2015 00:20 16,7 C 16,5 C 64 % 1009,9 hPa 0,0 mm 0,0 km/h (0 Bft) S 180 9,9 C 0,0 km/h (0 Bft)
01.09.2015 00:25 16,7 C 16,5 C 64 % 1009,9 hPa 0,0 mm 0,0 km/h (0 Bft) SO 135 9,9 C 0,0 km/h (0 Bft)
01.09.2015 00:30 16,6 C 16,4 C 64 % 1009,9 hPa 0,0 mm 0,0 km/h (0 Bft) S-SO 157 9,8 C 0,0 km/h (0 Bft)
01.09.2015 00:31 16,5 C 16,3 C 64 % 1009,8 hPa 0,0 mm 0,0 km/h (0 Bft) S 180 9,7 C 0,0 km/h (0 Bft)
01.09.2015 00:36 16,6 C 16,4 C 64 % 1009,8 hPa 0,0 mm 0,0 km/h (0 Bft) S-SO 157 9,8 C 0,0 km/h (0 Bft)
01.09.2015 00:40 16,6 C 16,4 C 64 % 1009,8 hPa 0,0 mm 0,0 km/h (0 Bft) S-SO 157 9,8 C 0,0 km/h (0 Bft)
01.09.2015 00:45 16,5 C 16,3 C 64 % 1009,8 hPa 0,0 mm 0,0 km/h (0 Bft) S-SO 157 9,7 C 0,0 km/h (0 Bft)
01.09.2015 00:50 17,0 C 16,7 C 64 % 1009,8 hPa 0,0 mm 0,5 km/h (0 Bft) SO 135 10,1 C 0,0 km/h (0 Bft)
01.09.2015 00:55 16,6 C 16,4 C 64 % 1009,8 hPa 0,0 mm 0,3 km/h (0 Bft) S-SO 157 9,8 C 0,0 km/h (0 Bft)
01.09.2015 01:00 16,4 C 16,2 C 64 % 1009,8 hPa 0,0 mm 0,0 km/h (0 Bft) S-SO 157 9,6 C 0,0 km/h (0 Bft)
01.09.2015 01:05 16,4 C 16,2 C 64 % 1009,8 hPa 0,0 mm 0,0 km/h (0 Bft) S-SO 157 9,6 C 0,0 km/h (0 Bft)
01.09.2015 01:10 16,3 C 16,1 C 64 % 1009,8 hPa 0,0 mm 0,0 km/h (0 Bft) S-SO 157 9,5 C 0,0 km/h (0 Bft)
01.09.2015 01:15 16,3 C 16,1 C 65 % 1009,7 hPa 0,0 mm 0,0 km/h (0 Bft) S-SO 157 9,7 C 0,0 km/h (0 Bft)
01.09.2015 01:20 16,1 C 16,0 C 65 % 1009,7 hPa 0,0 mm 0,0 km/h (0 Bft) S 180 9,5 C 0,0 km/h (0 Bft)
01.09.2015 01:25 16,3 C 16,1 C 65 % 1009,7 hPa 0,0 mm 0,0 km/h (0 Bft) N-NW 337 9,7 C 0,0 km/h (0 Bft)
01.09.2015 01:30 16,3 C 16,1 C 65 % 1009,7 hPa 0,0 mm 0,0 km/h (0 Bft) S-SO 157 9,7 C 0,0 km/h (0 Bft)
01.09.2015 01:35 16,4 C 16,2 C 65 % 1009,6 hPa 0,0 mm 0,0 km/h (0 Bft) NW 315 9,8 C 0,0 km/h (0 Bft)
01.09.2015 01:40 16,2 C 16,1 C 65 % 1009,6 hPa 0,0 mm 0,0 km/h (0 Bft) N-NO 22 9,6 C 0,0 km/h (0 Bft)
01.09.2015 01:45 16,2 C 16,1 C 66 % 1009,6 hPa 0,0 mm 0,3 km/h (0 Bft) O-NO 67 9,8 C 0,0 km/h (0 Bft)
01.09.2015 01:50 16,7 C 16,5 C 66 % 1009,6 hPa 0,0 mm 1,0 km/h (0 Bft) W-SW 247 10,3 C 9,6 km/h (2 Bft)
01.09.2015 01:55 16,8 C 16,7 C 65 % 1009,5 hPa 0,0 mm 1,3 km/h (1 Bft) O 90 10,2 C 0,0 km/h (0 Bft)
01.09.2015 02:00 16,5 C 16,5 C 65 % 1009,5 hPa 0,0 mm 0,8 km/h (0 Bft) SO 135 9,9 C 0,0 km/h (0 Bft)
01.09.2015 02:05 16,5 C 16,4 C 65 % 1009,5 hPa 0,0 mm 0,0 km/h (0 Bft) O-NO 67 9,9 C 0,0 km/h (0 Bft)
01.09.2015 02:10 16,4 C 16,4 C 65 % 1009,5 hPa 0,0 mm 0,0 km/h (0 Bft) O-NO 67 9,8 C 0,0 km/h (0 Bft)
01.09.2015 02:15 16,5 C 16,4 C 65 % 1009,4 hPa 0,0 mm 0,0 km/h (0 Bft) S-SW 202 9,9 C 0,0 km/h (0 Bft)
01.09.2015 02:20 16,7 C 16,5 C 66 % 1009,4 hPa 0,0 mm 0,0 km/h (0 Bft) O 90 10,3 C 0,0 km/h (0 Bft)
01.09.2015 02:25 16,7 C 16,6 C 65 % 1009,4 hPa 0,0 mm 0,0 km/h (0 Bft) O-NO 67 10,1 C 0,0 km/h (0 Bft)
01.09.2015 02:30 16,7 C 16,5 C 65 % 1009,4 hPa 0,0 mm 0,0 km/h (0 Bft) O-NO 67 10,1 C 0,0 km/h (0 Bft)
01.09.2015 02:35 17,1 C 16,9 C 65 % 1009,5 hPa 0,0 mm 0,8 km/h (0 Bft) SO 135 10,5 C 0,0 km/h (0 Bft)
01.09.2015 02:40 17,2 C 17,0 C 64 % 1009,5 hPa 0,0 mm 1,3 km/h (1 Bft) SO 135 10,3 C 10,6 km/h (2 Bft)
01.09.2015 02:45 17,0 C 16,9 C 64 % 1009,5 hPa 0,0 mm 0,3 km/h (0 Bft) N-NW 337 10,1 C 0,0 km/h (0 Bft)
01.09.2015 02:50 16,8 C 16,7 C 64 % 1009,5 hPa 0,0 mm 0,0 km/h (0 Bft) S-SO 157 10,0 C 0,0 km/h (0 Bft)
01.09.2015 02:55 16,5 C 16,5 C 64 % 1009,4 hPa 0,0 mm 0,8 km/h (0 Bft) SO 135 9,7 C 0,0 km/h (0 Bft)
01.09.2015 03:00 15,9 C 16,1 C 65 % 1009,4 hPa 0,0 mm 0,8 km/h (0 Bft) NW 315 9,3 C 0,0 km/h (0 Bft)
01.09.2015 03:05 15,7 C 15,8 C 66 % 1009,4 hPa 0,0 mm 0,3 km/h (0 Bft) SW 225 9,4 C 0,0 km/h (0 Bft)
01.09.2015 03:10 15,4 C 15,4 C 66 % 1009,4 hPa 0,0 mm 0,0 km/h (0 Bft) NW 315 9,1 C 3,4 km/h (1 Bft)
01.09.2015 03:15 15,5 C 15,4 C 67 % 1009,4 hPa 0,0 mm 0,0 km/h (0 Bft) NW 315 9,4 C 0,0 km/h (0 Bft)
01.09.2015 03:20 16,0 C 15,7 C 68 % 1009,4 hPa 0,0 mm 1,0 km/h (0 Bft) NW 315 10,1 C 3,4 km/h (1 Bft)
01.09.2015 03:25 15,7 C 15,6 C 68 % 1009,4 hPa 0,0 mm 1,0 km/h (0 Bft) O-SO 112 9,8 C 0,0 km/h (0 Bft)
01.09.2015 03:30 15,3 C 15,2 C 68 % 1009,4 hPa 0,0 mm 0,5 km/h (0 Bft) NW 315 9,4 C 0,0 km/h (0 Bft)
01.09.2015 03:35 15,3 C 15,2 C 69 % 1009,3 hPa 0,0 mm 0,0 km/h (0 Bft) O-NO 67 9,6 C 0,0 km/h (0 Bft)
01.09.2015 03:40 15,2 C 15,1 C 69 % 1009,3 hPa 0,0 mm 0,0 km/h (0 Bft) O-NO 67 9,6 C 0,0 km/h (0 Bft)
01.09.2015 03:45 15,0 C 15,0 C 69 % 1009,3 hPa 0,0 mm 0,0 km/h (0 Bft) SW 225 9,4 C 0,0 km/h (0 Bft)
01.09.2015 03:50 15,1 C 15,1 C 70 % 1009,3 hPa 0,0 mm 1,8 km/h (1 Bft) SW 225 9,7 C 14,0 km/h (3 Bft)
01.09.2015 03:55 16,0 C 16,0 C 69 % 1009,1 hPa 0,0 mm 3,1 km/h (1 Bft) S-SO 157 10,3 C 3,6 km/h (1 Bft)
01.09.2015 04:00 16,6 C 16,4 C 68 % 1009,1 hPa 0,0 mm 2,8 km/h (1 Bft) S 180 10,7 C 3,6 km/h (1 Bft)
01.09.2015 04:05 16,3 C 16,3 C 68 % 1009,1 hPa 0,0 mm 1,0 km/h (0 Bft) N-NW 337 10,4 C 0,0 km/h (0 Bft)
01.09.2015 04:10 15,9 C 16,1 C 68 % 1009,1 hPa 0,0 mm 0,3 km/h (0 Bft) N-NO 22 10,0 C 0,0 km/h (0 Bft)
01.09.2015 04:15 15,6 C 15,9 C 68 % 1009,2 hPa 0,0 mm 0,3 km/h (0 Bft) W-NW 292 9,7 C 0,0 km/h (0 Bft)
01.09.2015 04:20 15,5 C 15,5 C 69 % 1009,2 hPa 0,0 mm 0,3 km/h (0 Bft) O-NO 67 9,8 C 0,0 km/h (0 Bft)
01.09.2015 04:25 15,3 C 15,3 C 68 % 1009,2 hPa 0,0 mm 0,0 km/h (0 Bft) W-NW 292 9,4 C 0,0 km/h (0 Bft)
01.09.2015 04:30 15,0 C 15,0 C 69 % 1009,2 hPa 0,0 mm 0,0 km/h (0 Bft) W 270 9,4 C 0,0 km/h (0 Bft)
01.09.2015 04:35 14,7 C 14,7 C 69 % 1009,0 hPa 0,0 mm 0,0 km/h (0 Bft) W 270 9,1 C 0,0 km/h (0 Bft)
01.09.2015 04:40 14,6 C 14,5 C 70 % 1009,0 hPa 0,0 mm 0,0 km/h (0 Bft) NO 45 9,2 C 0,0 km/h (0 Bft)
01.09.2015 04:45 14,6 C 14,5 C 71 % 1009,0 hPa 0,0 mm 0,0 km/h (0 Bft) NO 45 9,4 C 0,0 km/h (0 Bft)
01.09.2015 04:50 14,4 C 14,4 C 71 % 1009,0 hPa 0,0 mm 0,0 km/h (0 Bft) O-NO 67 9,2 C 0,0 km/h (0 Bft)
01.09.2015 04:55 14,6 C 14,5 C 72 % 1008,8 hPa 0,0 mm 0,0 km/h (0 Bft) NW 315 9,6 C 0,0 km/h (0 Bft)
01.09.2015 05:00 14,4 C 14,3 C 72 % 1008,8 hPa 0,0 mm 0,0 km/h (0 Bft) NW 315 9,4 C 0,0 km/h (0 Bft)
01.09.2015 05:05 14,6 C 14,4 C 73 % 1008,8 hPa 0,0 mm 0,0 km/h (0 Bft) SO 135 9,8 C 0,0 km/h (0 Bft)
01.09.2015 05:10 14,3 C 14,2 C 72 % 1008,8 hPa 0,0 mm 0,0 km/h (0 Bft) SW 225 9,3 C 0,0 km/h (0 Bft)
01.09.2015 05:15 14,2 C 14,3 C 73 % 1008,3 hPa 0,0 mm 0,0 km/h (0 Bft) O-NO 67 9,4 C 0,0 km/h (0 Bft)
01.09.2015 05:20 14,3 C 14,3 C 73 % 1008,3 hPa 0,0 mm 0,0 km/h (0 Bft) N 360 9,5 C 0,0 km/h (0 Bft)
01.09.2015 05:25 14,4 C 14,4 C 73 % 1008,3 hPa 0,0 mm 0,0 km/h (0 Bft) O-NO 67 9,6 C 0,0 km/h (0 Bft)
01.09.2015 05:30 14,5 C 14,4 C 73 % 1008,3 hPa 0,0 mm 0,0 km/h (0 Bft) O-NO 67 9,7 C 0,0 km/h (0 Bft)
01.09.2015 05:35 14,6 C 14,5 C 73 % 1008,3 hPa 0,0 mm 0,0 km/h (0 Bft) NO 45 9,8 C 0,0 km/h (0 Bft)
01.09.2015 05:40 14,4 C 14,5 C 73 % 1008,3 hPa 0,0 mm 0,0 km/h (0 Bft) O-NO 67 9,6 C 0,0 km/h (0 Bft)
01.09.2015 05:45 14,8 C 14,7 C 74 % 1008,3 hPa 0,0 mm 0,0 km/h (0 Bft) N-NO 22 10,2 C 0,0 km/h (0 Bft)
01.09.2015 05:50 14,6 C 14,7 C 74 % 1008,3 hPa 0,0 mm 0,0 km/h (0 Bft) N-NO 22 10,0 C 0,0 km/h (0 Bft)
01.09.2015 05:55 14,7 C 14,7 C 74 % 1008,2 hPa 0,0 mm 0,0 km/h (0 Bft) N-NO 22 10,1 C 0,0 km/h (0 Bft)
01.09.2015 06:00 14,9 C 14,9 C 74 % 1008,2 hPa 0,0 mm 0,0 km/h (0 Bft) N-NO 22 10,3 C 0,0 km/h (0 Bft)
01.09.2015 06:05 14,8 C 14,8 C 74 % 1008,2 hPa 0,0 mm 0,0 km/h (0 Bft) N-NO 22 10,2 C 0,0 km/h (0 Bft)
01.09.2015 06:10 15,1 C 15,1 C 74 % 1008,2 hPa 0,0 mm 0,0 km/h (0 Bft) N-NO 22 10,5 C 0,0 km/h (0 Bft)
01.09.2015 06:15 15,0 C 15,0 C 74 % 1008,2 hPa 0,0 mm 0,0 km/h (0 Bft) N-NO 22 10,4 C 0,0 km/h (0 Bft)
01.09.2015 06:20 14,9 C 15,0 C 74 % 1008,2 hPa 0,0 mm 0,0 km/h (0 Bft) W-NW 292 10,3 C 0,0 km/h (0 Bft)
01.09.2015 06:25 14,7 C 14,8 C 74 % 1008,2 hPa 0,0 mm 0,0 km/h (0 Bft) W-NW 292 10,1 C 0,0 km/h (0 Bft)
01.09.2015 06:30 14,5 C 14,5 C 74 % 1008,2 hPa 0,0 mm 0,0 km/h (0 Bft) W-NW 292 9,9 C 0,0 km/h (0 Bft)
01.09.2015 06:35 14,3 C 14,3 C 74 % 1007,9 hPa 0,0 mm 0,0 km/h (0 Bft) NW 315 9,7 C 0,0 km/h (0 Bft)
01.09.2015 06:36 14,3 C 14,2 C 75 % 1007,9 hPa 0,0 mm 0,0 km/h (0 Bft) N-NW 337 9,9 C 0,0 km/h (0 Bft)
01.09.2015 06:37 14,3 C 14,2 C 75 % 1007,9 hPa 0,0 mm 0,0 km/h (0 Bft) N-NW 337 9,9 C 0,0 km/h (0 Bft)
01.09.2015 06:40 14,3 C 14,2 C 75 % 1007,9 hPa 0,0 mm 0,0 km/h (0 Bft) N-NW 337 9,9 C 0,0 km/h (0 Bft)
01.09.2015 06:45 14,2 C 14,1 C 75 % 1007,9 hPa 0,0 mm 0,0 km/h (0 Bft) SO 135 9,8 C 0,0 km/h (0 Bft)
01.09.2015 06:50 14,4 C 14,3 C 76 % 1007,9 hPa 0,0 mm 0,0 km/h (0 Bft) W-SW 247 10,2 C 0,0 km/h (0 Bft)
01.09.2015 06:55 14,6 C 14,5 C 76 % 1007,8 hPa 0,0 mm 0,0 km/h (0 Bft) W 270 10,4 C 0,0 km/h (0 Bft)
01.09.2015 07:00 14,6 C 14,5 C 76 % 1007,8 hPa 0,0 mm 0,0 km/h (0 Bft) W 270 10,4 C 0,0 km/h (0 Bft)
01.09.2015 07:05 14,5 C 14,5 C 76 % 1007,8 hPa 0,0 mm 0,0 km/h (0 Bft) W 270 10,3 C 0,0 km/h (0 Bft)
01.09.2015 07:10 14,8 C 14,8 C 76 % 1007,8 hPa 0,0 mm 0,0 km/h (0 Bft) S 180 10,6 C 0,0 km/h (0 Bft)
01.09.2015 07:15 14,9 C 15,1 C 76 % 1007,9 hPa 0,0 mm 0,0 km/h (0 Bft) W-SW 247 10,7 C 0,0 km/h (0 Bft)
01.09.2015 07:20 15,2 C 15,6 C 74 % 1007,9 hPa 0,0 mm 0,0 km/h (0 Bft) O-NO 67 10,6 C 0,0 km/h (0 Bft)
01.09.2015 07:25 15,5 C 16,0 C 74 % 1007,9 hPa 0,0 mm 0,0 km/h (0 Bft) N-NO 22 10,9 C 0,0 km/h (0 Bft)
01.09.2015 07:30 15,9 C 16,5 C 73 % 1007,9 hPa 0,0 mm 0,0 km/h (0 Bft) W-SW 247 11,1 C 0,0 km/h (0 Bft)
01.09.2015 07:35 16,1 C 16,8 C 74 % 1007,5 hPa 0,0 mm 0,0 km/h (0 Bft) SW 225 11,5 C 0,0 km/h (0 Bft)
01.09.2015 07:40 16,4 C 17,4 C 73 % 1007,5 hPa 0,0 mm 0,0 km/h (0 Bft) N-NW 337 11,5 C 0,0 km/h (0 Bft)
01.09.2015 07:45 16,5 C 18,7 C 73 % 1007,5 hPa 0,0 mm 0,0 km/h (0 Bft) O-NO 67 11,6 C 0,0 km/h (0 Bft)
01.09.2015 07:50 16,7 C 21,0 C 72 % 1007,5 hPa 0,0 mm 0,0 km/h (0 Bft) SO 135 11,6 C 0,0 km/h (0 Bft)
01.09.2015 07:55 16,9 C 22,5 C 72 % 1007,8 hPa 0,0 mm 0,0 km/h (0 Bft) SO 135 11,8 C 0,0 km/h (0 Bft)
01.09.2015 08:00 17,2 C 24,1 C 70 % 1007,8 hPa 0,0 mm 0,0 km/h (0 Bft) NO 45 11,7 C 0,0 km/h (0 Bft)
01.09.2015 08:05 17,6 C 25,0 C 70 % 1007,8 hPa 0,0 mm 0,0 km/h (0 Bft) NW 315 12,1 C 0,0 km/h (0 Bft)
01.09.2015 08:10 18,4 C 25,6 C 69 % 1007,8 hPa 0,0 mm 0,0 km/h (0 Bft) N-NO 22 12,6 C 0,0 km/h (0 Bft)
01.09.2015 08:15 19,1 C 26,2 C 68 % 1007,6 hPa 0,0 mm 0,0 km/h (0 Bft) N-NW 337 13,1 C 0,0 km/h (0 Bft)
01.09.2015 08:20 19,8 C 27,2 C 67 % 1007,6 hPa 0,0 mm 0,0 km/h (0 Bft) O-NO 67 13,5 C 0,0 km/h (0 Bft)
01.09.2015 08:25 20,2 C 27,7 C 66 % 1007,6 hPa 0,0 mm 0,0 km/h (0 Bft) NW 315 13,6 C 0,0 km/h (0 Bft)
01.09.2015 08:30 20,7 C 28,5 C 65 % 1007,6 hPa 0,0 mm 0,0 km/h (0 Bft) O-NO 67 13,9 C 0,0 km/h (0 Bft)
01.09.2015 08:35 21,1 C 29,3 C 65 % 1007,6 hPa 0,0 mm 0,0 km/h (0 Bft) O-NO 67 14,3 C 0,0 km/h (0 Bft)
01.09.2015 08:40 21,7 C 29,9 C 63 % 1007,6 hPa 0,0 mm 0,0 km/h (0 Bft) O-NO 67 14,3 C 0,0 km/h (0 Bft)
01.09.2015 08:45 21,6 C 30,5 C 62 % 1007,6 hPa 0,0 mm 0,0 km/h (0 Bft) O-NO 67 14,0 C 0,0 km/h (0 Bft)
01.09.2015 08:50 22,1 C 31,2 C 62 % 1007,6 hPa 0,0 mm 0,0 km/h (0 Bft) O-NO 67 14,5 C 0,0 km/h (0 Bft)
01.09.2015 08:55 22,1 C 31,2 C 61 % 1008,0 hPa 0,0 mm 0,5 km/h (0 Bft) SO 135 14,2 C 3,4 km/h (1 Bft)
01.09.2015 09:00 22,1 C 31,6 C 61 % 1008,0 hPa 0,0 mm 0,5 km/h (0 Bft) SW 225 14,2 C 0,0 km/h (0 Bft)
01.09.2015 09:05 22,2 C 31,7 C 61 % 1008,0 hPa 0,0 mm 0,5 km/h (0 Bft) SO 135 14,3 C 0,0 km/h (0 Bft)
01.09.2015 09:10 22,8 C 32,4 C 61 % 1008,0 hPa 0,0 mm 0,3 km/h (0 Bft) SO 135 14,9 C 0,0 km/h (0 Bft)
01.09.2015 09:15 22,9 C 32,9 C 59 % 1008,5 hPa 0,0 mm 0,0 km/h (0 Bft) O-NO 67 14,5 C 0,0 km/h (0 Bft)
01.09.2015 09:20 23,0 C 33,1 C 58 % 1008,5 hPa 0,0 mm 0,0 km/h (0 Bft) S-SW 202 14,3 C 0,0 km/h (0 Bft)
01.09.2015 09:25 23,0 C 32,9 C 58 % 1008,5 hPa 0,0 mm 0,8 km/h (0 Bft) SO 135 14,3 C 0,0 km/h (0 Bft)
01.09.2015 09:30 23,2 C 33,3 C 58 % 1008,5 hPa 0,0 mm 0,8 km/h (0 Bft) O-SO 112 14,5 C 0,0 km/h (0 Bft)
01.09.2015 09:35 23,6 C 33,5 C 58 % 1008,4 hPa 0,0 mm 0,3 km/h (0 Bft) NO 45 14,8 C 0,0 km/h (0 Bft)
01.09.2015 09:40 24,1 C 34,4 C 58 % 1008,4 hPa 0,0 mm 0,0 km/h (0 Bft) O-SO 112 15,3 C 0,0 km/h (0 Bft)
01.09.2015 09:45 24,2 C 34,8 C 58 % 1008,4 hPa 0,0 mm 0,0 km/h (0 Bft) NO 45 15,4 C 0,0 km/h (0 Bft)
01.09.2015 09:50 24,9 C 35,1 C 58 % 1008,4 hPa 0,0 mm 0,0 km/h (0 Bft) O-SO 112 16,1 C 0,0 km/h (0 Bft)
01.09.2015 09:55 24,8 C 35,3 C 57 % 1008,4 hPa 0,0 mm 0,0 km/h (0 Bft) NO 45 15,7 C 0,0 km/h (0 Bft)
01.09.2015 10:00 25,1 C 34,8 C 57 % 1008,4 hPa 0,0 mm 0,8 km/h (0 Bft) O-NO 67 16,0 C 0,0 km/h (0 Bft)
01.09.2015 10:05 25,5 C 33,9 C 57 % 1008,4 hPa 0,0 mm 1,8 km/h (1 Bft) O-NO 67 16,3 C 5,4 km/h (1 Bft)
01.09.2015 10:10 25,7 C 33,0 C 55 % 1008,4 hPa 0,0 mm 2,6 km/h (1 Bft) O-NO 67 16,0 C 0,0 km/h (0 Bft)
01.09.2015 10:15 25,9 C 32,8 C 54 % 1008,3 hPa 0,0 mm 2,6 km/h (1 Bft) O-NO 67 15,9 C 5,2 km/h (1 Bft)
01.09.2015 10:20 26,4 C 33,0 C 52 % 1008,3 hPa 0,0 mm 1,3 km/h (1 Bft) S-SO 157 15,7 C 2,6 km/h (1 Bft)
01.09.2015 10:25 26,2 C 32,8 C 51 % 1008,3 hPa 0,0 mm 2,8 km/h (1 Bft) NO 45 15,2 C 3,1 km/h (1 Bft)
01.09.2015 10:30 26,0 C 32,2 C 50 % 1008,3 hPa 0,0 mm 4,9 km/h (1 Bft) N-NO 22 14,8 C 8,3 km/h (2 Bft)
01.09.2015 10:35 26,3 C 32,2 C 50 % 1008,2 hPa 0,0 mm 4,4 km/h (1 Bft) N-NO 22 15,0 C 11,4 km/h (2 Bft)
01.09.2015 10:40 26,6 C 32,2 C 50 % 1008,2 hPa 0,0 mm 3,6 km/h (1 Bft) NO 45 15,3 C 6,5 km/h (2 Bft)
01.09.2015 10:45 26,5 C 32,2 C 49 % 1008,2 hPa 0,0 mm 3,4 km/h (1 Bft) N-NO 22 14,9 C 6,2 km/h (2 Bft)
01.09.2015 10:50 26,8 C 32,6 C 49 % 1008,2 hPa 0,0 mm 2,3 km/h (1 Bft) NW 315 15,2 C 4,4 km/h (1 Bft)
01.09.2015 10:55 26,9 C 32,7 C 50 % 1008,4 hPa 0,0 mm 3,1 km/h (1 Bft) S 180 15,6 C 4,1 km/h (1 Bft)
01.09.2015 11:00 27,0 C 33,0 C 49 % 1008,4 hPa 0,0 mm 2,8 km/h (1 Bft) W 270 15,4 C 5,7 km/h (1 Bft)
01.09.2015 11:05 27,0 C 32,9 C 48 % 1008,4 hPa 0,0 mm 3,4 km/h (1 Bft) N-NO 22 15,0 C 4,9 km/h (1 Bft)
01.09.2015 11:10 27,3 C 32,9 C 48 % 1008,4 hPa 0,0 mm 3,6 km/h (1 Bft) O-NO 67 15,3 C 3,4 km/h (1 Bft)
01.09.2015 11:15 27,3 C 33,0 C 47 % 1008,6 hPa 0,0 mm 3,4 km/h (1 Bft) O-NO 67 15,0 C 7,3 km/h (2 Bft)
01.09.2015 11:20 27,1 C 32,6 C 47 % 1008,6 hPa 0,0 mm 4,4 km/h (1 Bft) O-NO 67 14,8 C 4,7 km/h (1 Bft)
01.09.2015 11:25 27,2 C 32,6 C 47 % 1008,6 hPa 0,0 mm 5,2 km/h (1 Bft) O-NO 67 14,9 C 6,5 km/h (2 Bft)
01.09.2015 11:30 27,6 C 33,1 C 48 % 1008,6 hPa 0,0 mm 3,9 km/h (1 Bft) O-NO 67 15,6 C 6,5 km/h (2 Bft)
01.09.2015 11:35 27,8 C 33,0 C 46 % 1008,3 hPa 0,0 mm 3,9 km/h (1 Bft) O-NO 67 15,1 C 6,5 km/h (2 Bft)
01.09.2015 11:40 27,7 C 32,8 C 46 % 1008,3 hPa 0,0 mm 5,7 km/h (1 Bft) N-NW 337 15,0 C 3,4 km/h (1 Bft)
01.09.2015 11:45 27,9 C 33,0 C 46 % 1008,3 hPa 0,0 mm 4,7 km/h (1 Bft) O-NO 67 15,2 C 0,0 km/h (0 Bft)
01.09.2015 11:50 28,5 C 33,9 C 45 % 1008,3 hPa 0,0 mm 3,1 km/h (1 Bft) O 90 15,4 C 3,6 km/h (1 Bft)
01.09.2015 11:55 28,3 C 33,9 C 46 % 1008,4 hPa 0,0 mm 3,1 km/h (1 Bft) N-NO 22 15,6 C 8,3 km/h (2 Bft)
01.09.2015 12:00 28,4 C 33,9 C 45 % 1008,4 hPa 0,0 mm 3,6 km/h (1 Bft) S-SO 157 15,3 C 14,5 km/h (3 Bft)
01.09.2015 12:05 28,2 C 33,7 C 45 % 1008,4 hPa 0,0 mm 4,9 km/h (1 Bft) NW 315 15,1 C 14,0 km/h (3 Bft)
01.09.2015 12:10 27,9 C 32,9 C 45 % 1008,4 hPa 0,0 mm 8,0 km/h (2 Bft) NO 45 14,8 C 9,1 km/h (2 Bft)
01.09.2015 12:15 27,9 C 32,8 C 46 % 1008,3 hPa 0,0 mm 7,8 km/h (2 Bft) NO 45 15,2 C 15,3 km/h (3 Bft)
01.09.2015 12:20 28,0 C 33,0 C 45 % 1008,3 hPa 0,0 mm 5,7 km/h (1 Bft) N-NW 337 14,9 C 10,4 km/h (2 Bft)
01.09.2015 12:25 28,1 C 33,0 C 44 % 1008,3 hPa 0,0 mm 6,2 km/h (2 Bft) N-NO 22 14,7 C 8,0 km/h (2 Bft)
01.09.2015 12:30 28,0 C 33,0 C 44 % 1008,3 hPa 0,0 mm 6,0 km/h (2 Bft) O-SO 112 14,6 C 4,9 km/h (1 Bft)
01.09.2015 12:35 28,1 C 33,2 C 44 % 1008,3 hPa 0,0 mm 5,7 km/h (1 Bft) NO 45 14,7 C 10,4 km/h (2 Bft)
01.09.2015 12:38 28,2 C 33,3 C 43 % 1008,3 hPa 0,0 mm 5,7 km/h (1 Bft) N 360 14,4 C 5,2 km/h (1 Bft)
01.09.2015 12:40 28,2 C 33,3 C 43 % 1008,3 hPa 0,0 mm 5,7 km/h (1 Bft) N 360 14,4 C 5,2 km/h (1 Bft)
01.09.2015 12:45 28,5 C 33,6 C 44 % 1008,3 hPa 0,0 mm 4,7 km/h (1 Bft) O-NO 67 15,0 C 4,7 km/h (1 Bft)
01.09.2015 12:50 28,9 C 34,3 C 44 % 1008,3 hPa 0,0 mm 2,6 km/h (1 Bft) O 90 15,4 C 3,9 km/h (1 Bft)
01.09.2015 12:55 28,7 C 34,6 C 43 % 1008,2 hPa 0,0 mm 2,1 km/h (1 Bft) W 270 14,9 C 0,0 km/h (0 Bft)
01.09.2015 13:00 29,3 C 35,4 C 42 % 1008,2 hPa 0,0 mm 1,3 km/h (1 Bft) N-NW 337 15,0 C 3,9 km/h (1 Bft)
01.09.2015 13:05 29,5 C 35,6 C 42 % 1008,2 hPa 0,0 mm 1,3 km/h (1 Bft) W 270 15,2 C 3,4 km/h (1 Bft)
01.09.2015 13:10 29,3 C 34,7 C 41 % 1008,2 hPa 0,0 mm 5,7 km/h (1 Bft) W-NW 292 14,7 C 9,3 km/h (2 Bft)
01.09.2015 13:15 29,2 C 34,0 C 42 % 1008,2 hPa 0,0 mm 6,7 km/h (2 Bft) W-NW 292 14,9 C 3,4 km/h (1 Bft)
01.09.2015 13:20 29,6 C 34,0 C 42 % 1008,2 hPa 0,0 mm 5,4 km/h (1 Bft) NW 315 15,3 C 8,8 km/h (2 Bft)
01.09.2015 13:25 29,3 C 33,5 C 40 % 1008,2 hPa 0,0 mm 6,0 km/h (2 Bft) N-NW 337 14,3 C 10,4 km/h (2 Bft)
01.09.2015 13:30 29,5 C 32,5 C 41 % 1008,2 hPa 0,0 mm 8,0 km/h (2 Bft) NW 315 14,8 C 18,1 km/h (3 Bft)
01.09.2015 13:35 29,5 C 31,8 C 41 % 1008,2 hPa 0,0 mm 7,3 km/h (2 Bft) N-NW 337 14,8 C 10,9 km/h (2 Bft)
01.09.2015 13:40 29,1 C 30,9 C 42 % 1008,2 hPa 0,0 mm 8,3 km/h (2 Bft) W 270 14,9 C 19,9 km/h (4 Bft)
01.09.2015 13:45 29,1 C 30,9 C 42 % 1008,2 hPa 0,0 mm 8,8 km/h (2 Bft) N-NO 22 14,9 C 3,1 km/h (1 Bft)
01.09.2015 13:50 29,2 C 31,5 C 41 % 1008,2 hPa 0,0 mm 9,3 km/h (2 Bft) W 270 14,6 C 16,1 km/h (3 Bft)
01.09.2015 13:55 28,8 C 31,3 C 40 % 1008,5 hPa 0,0 mm 9,6 km/h (2 Bft) W 270 13,8 C 9,3 km/h (2 Bft)
01.09.2015 14:00 27,7 C 29,8 C 40 % 1008,5 hPa 0,0 mm 10,6 km/h (2 Bft) W 270 12,9 C 18,4 km/h (3 Bft)
01.09.2015 14:05 27,2 C 29,0 C 40 % 1008,5 hPa 0,0 mm 10,6 km/h (2 Bft) W 270 12,4 C 11,9 km/h (2 Bft)
01.09.2015 14:10 27,0 C 28,9 C 42 % 1008,5 hPa 0,0 mm 8,3 km/h (2 Bft) W-SW 247 13,0 C 24,1 km/h (4 Bft)
01.09.2015 14:15 26,7 C 28,7 C 43 % 1008,4 hPa 0,0 mm 6,5 km/h (2 Bft) SW 225 13,1 C 10,9 km/h (2 Bft)
01.09.2015 14:20 27,5 C 30,4 C 44 % 1008,4 hPa 0,0 mm 8,3 km/h (2 Bft) W-NW 292 14,1 C 24,3 km/h (4 Bft)
01.09.2015 14:25 27,7 C 31,3 C 42 % 1008,4 hPa 0,0 mm 10,1 km/h (2 Bft) SW 225 13,6 C 19,2 km/h (3 Bft)
01.09.2015 14:30 27,7 C 31,6 C 45 % 1008,4 hPa 0,0 mm 10,4 km/h (2 Bft) W 270 14,7 C 25,1 km/h (4 Bft)
01.09.2015 14:35 27,7 C 31,7 C 45 % 1008,3 hPa 0,0 mm 9,1 km/h (2 Bft) W 270 14,7 C 18,6 km/h (3 Bft)
01.09.2015 14:40 27,2 C 31,5 C 45 % 1008,3 hPa 0,0 mm 10,1 km/h (2 Bft) W-NW 292 14,2 C 31,3 km/h (5 Bft)
01.09.2015 14:45 26,9 C 30,5 C 46 % 1008,3 hPa 0,0 mm 13,5 km/h (3 Bft) W-SW 247 14,3 C 16,8 km/h (3 Bft)
01.09.2015 14:50 26,9 C 30,4 C 46 % 1008,3 hPa 0,0 mm 15,3 km/h (3 Bft) NW 315 14,3 C 33,4 km/h (5 Bft)
01.09.2015 14:55 26,8 C 30,8 C 47 % 1008,8 hPa 0,0 mm 12,4 km/h (3 Bft) W 270 14,5 C 6,7 km/h (2 Bft)
01.09.2015 15:00 26,5 C 30,5 C 48 % 1008,8 hPa 0,0 mm 9,8 km/h (2 Bft) W 270 14,6 C 10,9 km/h (2 Bft)
01.09.2015 15:05 26,6 C 30,7 C 48 % 1008,8 hPa 0,0 mm 10,1 km/h (2 Bft) W 270 14,7 C 9,3 km/h (2 Bft)
01.09.2015 15:10 25,9 C 29,7 C 49 % 1008,8 hPa 0,0 mm 9,3 km/h (2 Bft) SO 135 14,4 C 11,4 km/h (2 Bft)
01.09.2015 15:15 25,2 C 28,5 C 51 % 1008,8 hPa 0,0 mm 9,6 km/h (2 Bft) N-NW 337 14,3 C 13,7 km/h (3 Bft)
01.09.2015 15:20 24,7 C 27,4 C 53 % 1008,8 hPa 0,0 mm 9,3 km/h (2 Bft) SW 225 14,5 C 19,4 km/h (3 Bft)
01.09.2015 15:25 24,4 C 26,8 C 54 % 1008,8 hPa 0,0 mm 10,4 km/h (2 Bft) W-SW 247 14,5 C 23,3 km/h (4 Bft)
01.09.2015 15:30 23,9 C 26,0 C 54 % 1008,8 hPa 0,0 mm 10,6 km/h (2 Bft) NW 315 14,0 C 13,2 km/h (3 Bft)
01.09.2015 15:35 23,8 C 25,6 C 55 % 1008,6 hPa 0,0 mm 10,4 km/h (2 Bft) NW 315 14,2 C 14,0 km/h (3 Bft)
01.09.2015 15:40 23,7 C 25,5 C 55 % 1008,6 hPa 0,0 mm 9,1 km/h (2 Bft) W-NW 292 14,1 C 5,7 km/h (1 Bft)
01.09.2015 15:45 23,5 C 25,4 C 55 % 1008,6 hPa 0,0 mm 9,8 km/h (2 Bft) W 270 13,9 C 13,7 km/h (3 Bft)
01.09.2015 15:50 23,7 C 26,0 C 55 % 1008,6 hPa 0,0 mm 10,1 km/h (2 Bft) N-NO 22 14,1 C 14,0 km/h (3 Bft)
01.09.2015 15:55 23,5 C 25,9 C 55 % 1008,6 hPa 0,0 mm 10,9 km/h (2 Bft) NO 45 13,9 C 18,1 km/h (3 Bft)
01.09.2015 16:00 23,2 C 25,2 C 55 % 1008,6 hPa 0,0 mm 10,1 km/h (2 Bft) W 270 13,6 C 14,2 km/h (3 Bft)
01.09.2015 16:05 22,9 C 24,8 C 57 % 1008,6 hPa 0,0 mm 8,3 km/h (2 Bft) W 270 13,9 C 7,0 km/h (2 Bft)
01.09.2015 16:10 22,6 C 24,1 C 57 % 1008,6 hPa 0,0 mm 7,3 km/h (2 Bft) SW 225 13,6 C 10,1 km/h (2 Bft)
01.09.2015 16:15 22,3 C 23,6 C 57 % 1008,6 hPa 0,0 mm 8,5 km/h (2 Bft) S-SW 202 13,4 C 16,8 km/h (3 Bft)
01.09.2015 16:20 22,1 C 22,9 C 57 % 1008,6 hPa 0,0 mm 9,1 km/h (2 Bft) S 180 13,2 C 6,2 km/h (2 Bft)
01.09.2015 16:25 21,9 C 22,7 C 58 % 1008,6 hPa 0,0 mm 8,3 km/h (2 Bft) O-SO 112 13,3 C 7,8 km/h (2 Bft)
01.09.2015 16:30 21,8 C 22,3 C 58 % 1008,6 hPa 0,0 mm 7,3 km/h (2 Bft) O-NO 67 13,2 C 17,3 km/h (3 Bft)
01.09.2015 16:35 21,5 C 22,1 C 58 % 1008,4 hPa 0,0 mm 6,0 km/h (2 Bft) W-SW 247 12,9 C 6,5 km/h (2 Bft)
01.09.2015 16:40 21,1 C 21,4 C 59 % 1008,4 hPa 0,0 mm 8,0 km/h (2 Bft) W-NW 292 12,8 C 17,6 km/h (3 Bft)
01.09.2015 16:45 20,8 C 20,8 C 59 % 1008,4 hPa 0,0 mm 9,8 km/h (2 Bft) W-SW 247 12,5 C 16,3 km/h (3 Bft)
01.09.2015 16:50 20,0 C 20,0 C 63 % 1008,4 hPa 0,0 mm 9,3 km/h (2 Bft) W-NW 292 12,7 C 11,7 km/h (2 Bft)
01.09.2015 16:55 19,5 C 19,4 C 65 % 1009,1 hPa 0,0 mm 8,3 km/h (2 Bft) S 180 12,7 C 11,1 km/h (2 Bft)
01.09.2015 17:00 19,1 C 19,0 C 67 % 1009,1 hPa 0,0 mm 7,0 km/h (2 Bft) NW 315 12,8 C 16,1 km/h (3 Bft)
01.09.2015 17:05 19,0 C 18,8 C 68 % 1009,1 hPa 0,0 mm 6,5 km/h (2 Bft) O-SO 112 13,0 C 7,0 km/h (2 Bft)
01.09.2015 17:10 18,1 C 17,9 C 71 % 1009,1 hPa 0,0 mm 6,5 km/h (2 Bft) W 270 12,8 C 7,0 km/h (2 Bft)
01.09.2015 17:15 18,0 C 17,6 C 72 % 1009,1 hPa 0,0 mm 5,2 km/h (1 Bft) NO 45 12,9 C 3,4 km/h (1 Bft)
01.09.2015 17:20 17,8 C 17,4 C 73 % 1009,1 hPa 0,0 mm 3,1 km/h (1 Bft) O-NO 67 12,9 C 0,0 km/h (0 Bft)
01.09.2015 17:25 17,8 C 17,4 C 73 % 1009,1 hPa 0,0 mm 1,3 km/h (1 Bft) S-SO 157 12,9 C 0,0 km/h (0 Bft)
01.09.2015 17:30 17,6 C 17,2 C 75 % 1009,1 hPa 0,0 mm 3,4 km/h (1 Bft) N-NW 337 13,1 C 11,4 km/h (2 Bft)
01.09.2015 17:35 17,3 C 16,9 C 77 % 1009,4 hPa 0,0 mm 7,8 km/h (2 Bft) NW 315 13,2 C 37,5 km/h (5 Bft)
01.09.2015 17:40 16,9 C 16,5 C 77 % 1009,4 hPa 0,0 mm 11,1 km/h (2 Bft) S 180 12,8 C 6,0 km/h (2 Bft)
01.09.2015 17:45 16,6 C 16,2 C 78 % 1009,4 hPa 0,0 mm 12,4 km/h (3 Bft) W 270 12,7 C 6,7 km/h (2 Bft)
01.09.2015 17:50 16,3 C 15,9 C 78 % 1009,4 hPa 0,0 mm 9,8 km/h (2 Bft) N 360 12,5 C 9,3 km/h (2 Bft)
01.09.2015 17:55 16,2 C 15,8 C 78 % 1009,8 hPa 0,0 mm 9,1 km/h (2 Bft) S-SO 157 12,4 C 7,3 km/h (2 Bft)
01.09.2015 18:00 16,0 C 15,7 C 78 % 1009,8 hPa 0,7 mm 7,0 km/h (2 Bft) SO 135 12,2 C 6,0 km/h (2 Bft)
01.09.2015 18:05 15,8 C 15,5 C 79 % 1009,8 hPa 0,0 mm 6,2 km/h (2 Bft) NW 315 12,2 C 9,6 km/h (2 Bft)
01.09.2015 18:10 15,6 C 15,3 C 81 % 1009,8 hPa 0,0 mm 6,7 km/h (2 Bft) SW 225 12,3 C 7,0 km/h (2 Bft)
01.09.2015 18:15 15,5 C 15,2 C 81 % 1009,7 hPa 0,0 mm 7,3 km/h (2 Bft) S-SW 202 12,3 C 6,7 km/h (2 Bft)
01.09.2015 18:20 15,4 C 15,0 C 81 % 1009,7 hPa 0,0 mm 7,8 km/h (2 Bft) S 180 12,2 C 6,5 km/h (2 Bft)
01.09.2015 18:25 15,3 C 15,0 C 81 % 1009,7 hPa 0,0 mm 7,8 km/h (2 Bft) W-NW 292 12,1 C 10,4 km/h (2 Bft)
01.09.2015 18:30 15,3 C 14,9 C 81 % 1009,7 hPa 0,0 mm 8,3 km/h (2 Bft) W 270 12,1 C 8,8 km/h (2 Bft)
01.09.2015 18:35 15,3 C 14,9 C 82 % 1009,4 hPa 0,0 mm 9,1 km/h (2 Bft) W 270 12,2 C 21,2 km/h (4 Bft)
01.09.2015 18:40 15,3 C 15,0 C 81 % 1009,4 hPa 0,0 mm 9,3 km/h (2 Bft) NW 315 12,1 C 14,2 km/h (3 Bft)
01.09.2015 18:45 15,3 C 15,0 C 81 % 1009,4 hPa 0,0 mm 8,0 km/h (2 Bft) W 270 12,1 C 7,0 km/h (2 Bft)
01.09.2015 18:50 15,4 C 15,0 C 80 % 1009,4 hPa 0,0 mm 7,8 km/h (2 Bft) SW 225 12,0 C 13,7 km/h (3 Bft)
01.09.2015 18:55 15,4 C 15,0 C 79 % 1009,7 hPa 0,0 mm 7,8 km/h (2 Bft) W 270 11,8 C 4,1 km/h (1 Bft)
01.09.2015 19:00 15,3 C 14,9 C 79 % 1009,7 hPa 0,0 mm 7,8 km/h (2 Bft) S 180 11,7 C 18,1 km/h (3 Bft)
01.09.2015 19:05 14,9 C 14,6 C 80 % 1009,7 hPa 0,0 mm 7,8 km/h (2 Bft) NO 45 11,5 C 8,3 km/h (2 Bft)
01.09.2015 19:10 14,6 C 14,3 C 81 % 1009,7 hPa 0,7 mm 7,0 km/h (2 Bft) W-NW 292 11,4 C 7,8 km/h (2 Bft)
01.09.2015 19:15 14,4 C 14,1 C 82 % 1009,4 hPa 0,0 mm 6,5 km/h (2 Bft) SO 135 11,4 C 7,0 km/h (2 Bft)
01.09.2015 19:20 14,3 C 14,1 C 83 % 1009,4 hPa 0,7 mm 7,5 km/h (2 Bft) NW 315 11,5 C 10,9 km/h (2 Bft)
01.09.2015 19:25 14,3 C 14,1 C 83 % 1009,4 hPa 0,0 mm 9,1 km/h (2 Bft) O-SO 112 11,5 C 12,7 km/h (3 Bft)
01.09.2015 19:30 14,2 C 14,0 C 84 % 1009,4 hPa 0,7 mm 8,3 km/h (2 Bft) S-SO 157 11,5 C 17,3 km/h (3 Bft)
01.09.2015 19:35 14,2 C 14,0 C 84 % 1009,7 hPa 0,0 mm 7,0 km/h (2 Bft) SW 225 11,5 C 14,8 km/h (3 Bft)
01.09.2015 19:40 14,2 C 14,0 C 84 % 1009,7 hPa 1,4 mm 9,3 km/h (2 Bft) SW 225 11,5 C 7,0 km/h (2 Bft)
01.09.2015 19:45 14,2 C 14,0 C 85 % 1009,7 hPa 0,0 mm 7,8 km/h (2 Bft) SW 225 11,7 C 6,7 km/h (2 Bft)
01.09.2015 19:50 14,2 C 14,0 C 85 % 1009,7 hPa 0,0 mm 4,1 km/h (1 Bft) S-SW 202 11,7 C 6,5 km/h (2 Bft)
01.09.2015 19:55 14,1 C 13,9 C 86 % 1010,0 hPa 0,0 mm 2,8 km/h (1 Bft) S 180 11,8 C 0,0 km/h (0 Bft)
01.09.2015 20:00 14,1 C 13,9 C 86 % 1010,0 hPa 0,0 mm 1,0 km/h (0 Bft) O-NO 67 11,8 C 0,0 km/h (0 Bft)
01.09.2015 20:05 14,1 C 14,0 C 86 % 1010,0 hPa 0,0 mm 0,0 km/h (0 Bft) O 90 11,8 C 0,0 km/h (0 Bft)
01.09.2015 20:10 14,2 C 14,0 C 86 % 1010,0 hPa 0,0 mm 0,0 km/h (0 Bft) O-SO 112 11,9 C 0,0 km/h (0 Bft)
01.09.2015 20:15 14,2 C 14,1 C 86 % 1010,3 hPa 0,0 mm 0,0 km/h (0 Bft) O-NO 67 11,9 C 0,0 km/h (0 Bft)
01.09.2015 20:20 14,2 C 14,1 C 87 % 1010,3 hPa 0,0 mm 0,0 km/h (0 Bft) O-NO 67 12,1 C 0,0 km/h (0 Bft)
01.09.2015 20:25 14,2 C 14,1 C 87 % 1010,3 hPa 0,0 mm 0,0 km/h (0 Bft) O-NO 67 12,1 C 0,0 km/h (0 Bft)
01.09.2015 20:30 14,2 C 14,1 C 86 % 1010,3 hPa 0,0 mm 0,0 km/h (0 Bft) W-NW 292 11,9 C 0,0 km/h (0 Bft)
01.09.2015 20:35 14,2 C 14,1 C 86 % 1010,1 hPa 0,7 mm 0,0 km/h (0 Bft) W 270 11,9 C 0,0 km/h (0 Bft)
01.09.2015 20:40 14,2 C 14,1 C 86 % 1010,1 hPa 0,0 mm 0,0 km/h (0 Bft) SW 225 11,9 C 0,0 km/h (0 Bft)
01.09.2015 20:45 14,1 C 14,0 C 87 % 1010,1 hPa 0,7 mm 0,0 km/h (0 Bft) W-SW 247 12,0 C 0,0 km/h (0 Bft)
01.09.2015 20:50 14,1 C 14,0 C 87 % 1010,1 hPa 0,7 mm 0,0 km/h (0 Bft) W-SW 247 12,0 C 0,0 km/h (0 Bft)
01.09.2015 20:55 14,1 C 14,0 C 86 % 1010,6 hPa 0,0 mm 0,3 km/h (0 Bft) N-NO 22 11,8 C 0,0 km/h (0 Bft)
01.09.2015 21:00 14,1 C 14,0 C 87 % 1010,6 hPa 0,0 mm 0,5 km/h (0 Bft) W-SW 247 12,0 C 0,0 km/h (0 Bft)
01.09.2015 21:05 14,1 C 14,0 C 87 % 1010,6 hPa 0,0 mm 1,6 km/h (1 Bft) S 180 12,0 C 10,1 km/h (2 Bft)
01.09.2015 21:10 14,2 C 14,1 C 87 % 1010,6 hPa 0,7 mm 3,6 km/h (1 Bft) SW 225 12,1 C 5,7 km/h (1 Bft)
01.09.2015 21:15 14,3 C 14,1 C 87 % 1010,6 hPa 0,0 mm 4,9 km/h (1 Bft) SW 225 12,2 C 6,0 km/h (2 Bft)
01.09.2015 21:20 14,4 C 14,2 C 87 % 1010,6 hPa 0,0 mm 6,2 km/h (2 Bft) W-SW 247 12,3 C 4,4 km/h (1 Bft)
01.09.2015 21:25 14,4 C 14,2 C 87 % 1010,6 hPa 0,0 mm 5,7 km/h (1 Bft) O-SO 112 12,3 C 7,3 km/h (2 Bft)
01.09.2015 21:30 14,5 C 14,3 C 87 % 1010,6 hPa 0,0 mm 3,6 km/h (1 Bft) W-NW 292 12,4 C 0,0 km/h (0 Bft)
01.09.2015 21:35 14,6 C 14,4 C 87 % 1011,0 hPa 0,0 mm 2,8 km/h (1 Bft) N-NO 22 12,5 C 0,0 km/h (0 Bft)
01.09.2015 21:40 14,7 C 14,5 C 87 % 1011,0 hPa 0,0 mm 2,3 km/h (1 Bft) SW 225 12,6 C 14,5 km/h (3 Bft)
01.09.2015 21:45 14,7 C 14,6 C 87 % 1011,0 hPa 0,0 mm 2,6 km/h (1 Bft) W 270 12,6 C 5,2 km/h (1 Bft)
01.09.2015 21:50 14,8 C 14,7 C 87 % 1011,0 hPa 0,0 mm 4,4 km/h (1 Bft) S-SW 202 12,7 C 9,8 km/h (2 Bft)
01.09.2015 21:55 14,9 C 14,7 C 87 % 1011,1 hPa 0,0 mm 4,4 km/h (1 Bft) W-SW 247 12,8 C 0,0 km/h (0 Bft)
01.09.2015 22:00 14,8 C 14,7 C 87 % 1011,1 hPa 0,0 mm 3,9 km/h (1 Bft) S-SW 202 12,7 C 6,7 km/h (2 Bft)
01.09.2015 22:05 14,9 C 14,7 C 88 % 1011,1 hPa 0,0 mm 3,4 km/h (1 Bft) SW 225 12,9 C 5,2 km/h (1 Bft)
01.09.2015 22:10 14,8 C 14,7 C 88 % 1011,1 hPa 0,0 mm 5,2 km/h (1 Bft) W 270 12,8 C 13,7 km/h (3 Bft)
01.09.2015 22:15 14,7 C 14,6 C 88 % 1011,4 hPa 0,0 mm 8,3 km/h (2 Bft) W 270 12,7 C 15,8 km/h (3 Bft)
01.09.2015 22:20 14,5 C 14,4 C 88 % 1011,4 hPa 0,0 mm 13,2 km/h (3 Bft) W 270 12,5 C 22,0 km/h (4 Bft)
01.09.2015 22:25 14,3 C 14,1 C 88 % 1011,4 hPa 0,0 mm 13,5 km/h (3 Bft) W-SW 247 12,3 C 27,4 km/h (4 Bft)
01.09.2015 22:30 14,1 C 13,9 C 88 % 1011,4 hPa 0,7 mm 11,1 km/h (2 Bft) W-SW 247 12,1 C 18,6 km/h (3 Bft)
01.09.2015 22:35 13,9 C 13,7 C 88 % 1011,9 hPa 0,7 mm 11,1 km/h (2 Bft) W-NW 292 11,9 C 11,7 km/h (2 Bft)
01.09.2015 22:40 13,8 C 13,6 C 88 % 1011,9 hPa 0,7 mm 10,1 km/h (2 Bft) W-SW 247 11,8 C 9,3 km/h (2 Bft)
01.09.2015 22:45 13,8 C 13,6 C 88 % 1011,9 hPa 0,0 mm 9,8 km/h (2 Bft) S-SW 202 11,8 C 12,4 km/h (3 Bft)
01.09.2015 22:50 13,7 C 13,6 C 88 % 1011,9 hPa 0,0 mm 9,1 km/h (2 Bft) NW 315 11,7 C 10,6 km/h (2 Bft)
01.09.2015 22:55 13,7 C 13,6 C 88 % 1011,8 hPa 0,0 mm 7,3 km/h (2 Bft) S-SO 157 11,7 C 3,4 km/h (1 Bft)
01.09.2015 23:00 13,7 C 13,6 C 88 % 1011,8 hPa 0,7 mm 5,7 km/h (1 Bft) W-SW 247 11,7 C 7,8 km/h (2 Bft)
01.09.2015 23:05 13,7 C 13,6 C 88 % 1011,8 hPa 0,0 mm 4,7 km/h (1 Bft) W-SW 247 11,7 C 6,2 km/h (2 Bft)
01.09.2015 23:10 13,7 C 13,6 C 88 % 1011,8 hPa 0,0 mm 2,6 km/h (1 Bft) W-NW 292 11,7 C 5,7 km/h (1 Bft)
01.09.2015 23:15 13,7 C 13,6 C 88 % 1011,9 hPa 0,0 mm 1,8 km/h (1 Bft) W-SW 247 11,7 C 2,8 km/h (1 Bft)
01.09.2015 23:20 13,7 C 13,6 C 88 % 1011,9 hPa 0,0 mm 3,1 km/h (1 Bft) W-NW 292 11,7 C 9,8 km/h (2 Bft)
01.09.2015 23:25 13,7 C 13,6 C 88 % 1011,9 hPa 0,7 mm 4,4 km/h (1 Bft) W-NW 292 11,7 C 6,0 km/h (2 Bft)
01.09.2015 23:30 13,7 C 13,6 C 88 % 1011,9 hPa 0,0 mm 3,4 km/h (1 Bft) W-SW 247 11,7 C 0,0 km/h (0 Bft)
01.09.2015 23:35 13,6 C 13,5 C 88 % 1012,2 hPa 0,0 mm 1,0 km/h (0 Bft) W-SW 247 11,6 C 0,0 km/h (0 Bft)
01.09.2015 23:40 13,6 C 13,5 C 88 % 1012,2 hPa 0,7 mm 0,0 km/h (0 Bft) W-SW 247 11,6 C 0,0 km/h (0 Bft)
01.09.2015 23:45 13,6 C 13,5 C 88 % 1012,2 hPa 0,0 mm 0,0 km/h (0 Bft) N-NO 22 11,6 C 0,0 km/h (0 Bft)
01.09.2015 23:50 13,7 C 13,6 C 88 % 1012,2 hPa 0,0 mm 0,0 km/h (0 Bft) W 270 11,7 C 0,0 km/h (0 Bft)
01.09.2015 23:55 13,7 C 13,6 C 89 % 1012,0 hPa 0,0 mm 0,0 km/h (0 Bft) W 270 11,9 C 0,0 km/h (0 Bft)
_ Min-Zeit 23:45 23:45 14:05 07:50 - 23:55 - - 04:35 23:55
Minimum _ 13,6 C 13,5 C 40 % 1007,5 hPa - 0,0 km/h (0 Bft) - - 9,1 C 0,0 km/h (0 Bft)
_ Max-Zeit 13:20 13:05 23:55 23:50 19:40 14:50 - - 10:05 17:35
Maximum _ 29,6 C 35,6 C 89 % 1012,2 hPa 1,4 mm 15,3 km/h
NW (3 Bft)
- - 16,3 C 37,5 km/h
NW (5 Bft)
Durchschnitt _ 19,1 C 20,9 C 67 % 1009,2 hPa #11,0 mm 3,6 km/h (1 Bft) W - 12,3 C 5,3 km/h (1 Bft)